Regional Weather Roundup
Issued by NWS Portland, ME

Home | Current Version | Previous Version | Text Only | Print | Product List | Glossary On
Versions: 1 2 3 4 5 6 7 8 9 10 11 12 13 14 15 16 17 18 19 20 21 22 23 24 25 26 27 28 29 30 31 32 33 34 35 36 37 38 39 40 41 42 43 44 45 46 47 48 49 50
000
ASUS41 KGYX 020410
RWRGYX
WEATHER ROUNDUP FOR MAINE AND NEW HAMPSHIRE
NATIONAL WEATHER SERVICE GRAY ME
1200 AM EDT WED SEP 02 2015

MEZ002-005-006-010-012-015-018-020-021-024-026-027-029-020500-
MAINE

CITY           SKY/WX    TMP DP  RH WIND       PRES   REMARKS
PORTLAND       CLEAR     64  61  90 SW5       30.03S
SANFORD        CLEAR     55  52  88 CALM      30.04S
BAR HARBOR     CLEAR     59  57  94 CALM      30.02S
WISCASSET      CLEAR     58  56  93 CALM      30.04S
ROCKLAND       CLEAR     57  55  94 CALM      30.01S
FRYEBURG       CLEAR     58  58 100 CALM      30.03S FOG
LEWISTONAUBURN CLEAR     55 N/A N/A CALM      30.03S
AUGUSTA        CLEAR     61  56  83 S3        30.03S
WATERVILLE     CLEAR     61  54  77 SW5       29.99S
BANGOR         PTCLDY    62  58  86 S7        30.01S
GREENVILLE       N/A     61  57  87 CALM      30.00F
MILLINOCKET    CLEAR     60  55  83 CALM      29.99F
HOULTON        MOCLDY    62  52  69 S7        29.95F
PRESQUE ISLE   MOCLDY    59  52  77 CALM      29.94S
FRENCHVILLE    MOCLDY    60  54  80 S5        29.93S
CARIBOU        MOCLDY    61  53  75 S6        29.93F
$$

NHZ002-005-008-009-011-012-014-020500-
NEW HAMPSHIRE

CITY           SKY/WX    TMP DP  RH WIND       PRES   REMARKS
PORTSMOUTH     CLEAR     62  60  91 CALM      30.02S
ROCHESTER      CLEAR     61  58  90 CALM      30.03S
NASHUA         CLEAR     65  61  87 CALM      30.04S
MANCHESTER     CLEAR     67  59  75 CALM      30.02F
CONCORD        CLEAR     62  58  86 CALM      30.04S
LACONIA        CLEAR     64  59  82 CALM      30.03S
PLYMOUTH         N/A     57  56  96 CALM      30.04S FOG
BERLIN         CLEAR     51  49  92 CALM      30.06S
WHITEFIELD     CLEAR     55  53  93 CALM      30.06S
JAFFREY        CLEAR     61  59  93 CALM      30.08R
KEENE          CLEAR     61  55  82 CALM      30.06S
LEBANON        CLEAR     61  58  90 CALM      30.04S FOG
MT WASHINGTON  PTCLDY    61  -8   6 W17         N/A
$$

VTZ005-007-008-020500-
VERMONT

CITY           SKY/WX    TMP DP  RH WIND       PRES   REMARKS
ST JOHNSBURY     N/A     62  58  86 MISG      30.04R
MONTPELIER     CLEAR     59  58  96 CALM      30.10R
BURLINGTON     CLEAR     66  59  78 E3        30.01F
$$

MAZ007-012-024-CTZ003-RIZ002-NYZ038-NYZ072-020500-
SOUTHERN NEW ENGLAND AND NY

CITY           SKY/WX    TMP DP  RH WIND       PRES   REMARKS
BOSTON         CLEAR     71  63  75 SW6       30.04S
WORCESTER      CLEAR     65  60  84 W9        30.08S
NANTUCKET      CLEAR     63  61  93 S6        30.06F
PROVIDENCE     CLEAR     67  64  90 SW3       30.06S
HARTFORD       CLEAR     69  63  81 S5        30.04S
ALBANY         CLEAR     70  63  78 CALM      30.04S
NEW YORK CITY  CLEAR     77  67  71 S6        30.05S
$$

ANZ081-ANZ082-ANZ150-NHZ014-MEZ023>029-020500-
COASTAL MARINE OBSERVATIONS

STATION/POSITION TIME  TEMP    WIND        PRES    WAVE
                       AIR SEA DIR/SP/G            HT/PER
                 (UTC) (F)     (DEG/KT/KT) (MB)    (FT/S)
MOUNT DESERT ROC 0400   59     230/ 10/ 10 1016.9S
MATINICUS ROCK   0400          240/ 10/ 10 1016.7R
ISLE OF SHOALS   0400   69     200/ 11/ 11 1016.3F
JEFFREYS LEDGE   0303      67                N/A     2/ 7
CASHES LEDGE BUO 0350   67                 1017.0S   2/ 8
GEORGES BANK BUO 0350   65 68   10/  8/ 10 1017.0S   3/ 7
$$

.............KEY..............
   WCI - WIND CHILL
   TC  - TEMPERATURE IN CELSIUS
   VSB - VISIBILITY IN MILES
   HX  - HEAT INDEX
   FAIR- INDICATES FEW OR NO CLOUDS BELOW 12,000 FT, WITH NO
         SIGNIFICANT WEATHER AND/OR OBSTRUCTIONS TO VISIBILITY.




USA.gov is the U.S. government's official web portal to all federal, state and local government web resources and services.